STARLINK-35403, 66081

Orbit data source: Space-Track

STARLINK-35403, 66081 is a payload satellite owned by SpaceX/Seattle (US) in LEO that was launched on Sun, 19 Oct 2025 UTC via an FALCON 9 launch vehicle from the Air Force Eastern Test Range (AFETR). Payload-class satellites include a variety of spacecraft equipped with specific instruments for various scientific and technological missions. These include communications satellites like Starlink; space stations such as the ISS; scientific satellites like the Hubble; Earth observation satellites from companies like Planet Labs, Umbra, and HawkEye 360; GPS; miniature CubeSats for education and research; and military/defense satellites.

Loading next visibility...
Identifier
66081, 2025-235Z
Orbit
LEO
Country
Flag of USUS
Related business
Manufacturer
SpaceX/Seattle
Mission
Operational Commercial Communications
Bus & Motor
STARLINK V2MO, Unknown motor
Mass
575 kg wet, ~530 kg dry
Launch date (UTC)
2025-10-19 (8 months ago)
Launch vehicle
FALCON 9
Launch site
Air Force Eastern Test Range (AFETR)
Object type
Payload
Rocket body
Debris
Shape & HBR
Box + 2 Pan, 17.7 m
Radar Cross Section
36.964 m², Large (>1 m²)

Expand to show TLE details & history
Last TLE update: 2 days ago

TLE from 2 days ago
0 STARLINK-35403
1 66081U 25235Z   26170.18581657  .00012572  00000-0  41597-3 0  9991
2 66081  53.1577 132.9244 0001241  86.3322 273.7821 15.31717711 38474
Epoch: 2026-06-19T04:27Z
TLE epoch observation values (Epoch: 2026-06-19T04:27:34.551Z)
Latitude
-0.00006°
Longitude
158.61198°
Altitude
471.531 km
Speed
7.632 km/s
True Right ascension
08h 51m 41s
True Declination
0° 00' 00"
Sunlit
Object was in daylight at epoch
Visualization orbit readout
Latitude
Unknown
Longitude
Unknown
Altitude
Unknown
Speed
Unknown
Apparent Right ascension
Unknown
Apparent Declination
Unknown
Sunlit
N/A
Visualization observer readout
Local Sidereal Time
07:19:38
Azimuth
Unknown
Elevation
Unknown
Doppler factor
Unknown
Orbital elements
Apogee altitude
471.794 km
Perigee altitude
470.094 km
Semi-major axis
6,849.081 km
Eccentricity
0.00012
Inclination
53.1577°
RAAN
132.9244°
Arg. of periapsis
86.3322°
True anomaly
273.76791°
Mean anomaly
273.7821°
Eccentric anomaly
273.77501°
Mean motion
3.82908 °/min
Orbital period
94.02 mins
BSTAR
0.00041597
Loading maneuver chart data...
Computing Atmospheric mass density...
Loading historical data...
Loading historical data...
Loading historical data...
Loading historical data...
Loading historical data...
Loading historical data...
Loading historical data...

Documentation

Showing up to 5 results
|